K3PPP Weather Reports


Display with metric or nautical units.
time (UTC)temp
F
wind
direction
speed
MPH
gust
MPH
rain 1hr
in
rain 24hr
in
rain mn
in
humidity
%
barometer
mb
20260505092636 58 323 2.0 3.0 0.00 0.04 0.04 66 1010.8
20260505092135 58 215 2.0 3.0 0.00 0.04 0.04 65 1010.7
20260505091632 59 208 4.0 6.0 0.00 0.04 0.04 65 1010.7
20260505091130 59 279 4.0 7.0 0.00 0.04 0.04 64 1010.8
20260505090627 59 226 3.0 6.0 0.00 0.04 0.04 65 1010.8
20260505090125 59 251 3.0 5.0 0.00 0.04 0.04 64 1010.9
20260505085622 59 200 8.0 10.0 0.00 0.04 0.04 64 1010.8
20260505085121 59 284 3.0 5.0 0.00 0.04 0.04 64 1010.8
20260505084618 59 12 3.0 5.0 0.00 0.04 0.04 66 1010.7
20260505084116 58 241 6.0 9.0 0.00 0.04 0.04 65 1010.7
20260505083613 58 286 4.0 6.0 0.00 0.04 0.04 67 1010.6
20260505083110 58 248 2.0 3.0 0.00 0.04 0.04 67 1010.7
20260505082605 58 279 3.0 3.0 0.00 0.04 0.04 67 1010.6
20260505082103 58 195 2.0 2.0 0.00 0.04 0.04 68 1010.6
20260505081559 58 191 5.0 6.0 0.00 0.04 0.04 67 1010.4
20260505081056 58 255 0.0 0.0 0.00 0.04 0.04 68 1010.4
20260505080552 56 290 2.0 2.0 0.00 0.04 0.04 73 1010.2
20260505080049 55 28 2.0 3.0 0.00 0.04 0.04 78 1010.7
20260505075545 56 343 2.0 2.0 0.07 0.04 0.04 76 1010.7
20260505075042 58 331 2.0 3.0 0.07 0.04 0.04 71 1010.8
20260505074539 59 318 2.0 2.0 0.00 0.03 0.03 66 1010.7
20260505074036 58 268 3.0 3.0 0.00 0.03 0.03 66 1010.6
20260505073533 58 320 3.0 3.0 0.00 0.03 0.03 66 1010.4
20260505073032 58 302 2.0 2.0 0.00 0.03 0.03 66 1010.4
20260505072527 58 311 2.0 3.0 0.00 0.03 0.03 66 1010.6
20260505072024 58 60 2.0 3.0 0.00 0.03 0.03 67 1010.3
20260505071519 57 288 4.0 6.0 0.00 0.03 0.03 66 1010.0
20260505071018 57 241 3.0 5.0 0.00 0.03 0.03 67 1010.1
20260505070515 57 240 2.0 2.0 0.00 0.03 0.03 69 1010.0
20260505070010 57 300 1.0 1.0 0.00 0.03 0.03 69 1010.0
20260505065507 56 269 2.0 2.0 0.00 0.03 0.03 70 1010.2
20260505065003 56 183 1.0 3.0 0.00 0.03 0.03 72 1010.0
20260505064500 56 310 3.0 3.0 0.00 0.03 0.03 72 1010.1
20260505063959 56 223 3.0 3.0 0.00 0.03 0.03 74 1010.1
20260505063455 55 228 3.0 3.0 0.00 0.03 0.03 77 1010.0
20260505062951 52 281 2.0 2.0 0.00 0.03 0.03 87 1010.1
20260505062448 52 13 0.0 0.0 0.00 0.03 0.03 91 1010.3
20260505061945 52 13 0.0 0.0 0.00 0.03 0.03 91 1010.4
20260505061443 52 13 0.0 0.0 0.00 0.03 0.03 90 1010.4
20260505060940 53 13 0.0 1.0 0.00 0.03 0.03 89 1010.6
20260505060437 54 10 1.0 1.0 0.17 0.03 0.03 86 1010.6
20260505055934 56 13 0.0 1.0 0.17 0.03 0.03 79 1010.7
20260505055430 58 293 2.0 2.0 0.00 0.00 0.00 65 1010.6
20260505054927 58 207 1.0 2.0 0.00 0.00 0.00 65 1010.4
20260505054424 58 194 4.0 5.0 0.00 0.00 0.00 65 1010.4
20260505053922 58 197 6.0 7.0 0.00 0.00 0.00 66 1010.4
20260505053419 58 322 3.0 3.0 0.00 0.00 0.00 66 1010.7
20260505052916 58 243 7.0 8.0 0.00 0.00 0.00 66 1010.7
20260505052412 58 222 3.0 3.0 0.00 0.00 0.00 67 1010.7
20260505051910 57 213 4.0 7.0 0.00 0.00 0.00 68 1010.6
20260505051407 58 222 5.0 6.0 0.00 0.00 0.00 67 1010.7
20260505050905 58 226 3.0 3.0 0.00 0.00 0.00 66 1010.4
20260505050403 58 217 2.0 2.0 0.00 0.00 0.00 66 1010.8
20260505041330 58 219 3.0 3.0 0.00 0.00 0.00 67 1010.6
20260505040827 58 244 2.0 2.0 0.00 0.00 0.00 67 1010.4
20260505040325 58 227 5.0 6.0 0.00 0.00 0.00 67 1010.4
20260505035822 59 215 5.0 6.0 0.00 0.00 0.00 67 1010.4
20260505035317 59 230 6.0 8.0 0.00 0.00 0.00 66 1010.4
20260505034815 59 202 3.0 3.0 0.00 0.00 0.00 67 1010.7
20260505034311 58 210 3.0 3.0 0.00 0.00 0.00 67 1010.6
20260505033808 58 213 3.0 5.0 0.00 0.00 0.00 67 1010.4
20260505033305 58 215 5.0 6.0 0.00 0.00 0.00 67 1010.6
20260505032804 58 301 2.0 2.0 0.00 0.00 0.00 68 1010.6
20260505032259 58 223 4.0 5.0 0.00 0.00 0.00 68 1010.6
20260505031757 58 207 4.0 5.0 0.00 0.00 0.00 69 1010.8
20260505031253 58 215 4.0 5.0 0.00 0.00 0.00 68 1010.7
20260505030750 58 223 4.0 5.0 0.00 0.00 0.00 68 1010.7
20260505030246 57 239 2.0 2.0 0.00 0.00 0.00 69 1011.0
20260505025742 58 212 1.0 1.0 0.00 0.00 0.00 69 1011.0
20260505025240 57 223 1.0 2.0 0.00 0.00 0.00 69 1011.0
20260505024738 57 247 3.0 3.0 0.00 0.00 0.00 69 1010.8
20260505024235 58 238 3.0 3.0 0.00 0.00 0.00 68 1010.9
20260505023732 58 219 1.0 2.0 0.00 0.00 0.00 68 1010.8
20260505023230 58 221 2.0 3.0 0.00 0.00 0.00 68 1010.9
20260505022727 59 219 3.0 3.0 0.00 0.00 0.00 67 1010.7
20260505022224 59 228 3.0 3.0 0.00 0.00 0.00 67 1010.8
20260505021720 59 227 1.0 2.0 0.00 0.00 0.00 66 1010.8
20260505021218 59 278 1.0 1.0 0.00 0.00 0.00 67 1010.9
20260505020713 59 205 1.0 2.0 0.00 0.00 0.00 66 1011.0
20260505020208 59 274 4.0 6.0 0.00 0.00 0.00 65 1011.0
20260505015706 60 264 3.0 5.0 0.00 0.00 0.00 65 1011.0
20260505015203 60 217 3.0 5.0 0.00 0.00 0.00 64 1011.1
20260505014700 59 201 5.0 7.0 0.00 0.00 0.00 65 1011.0
20260505014157 60 303 1.0 1.0 0.00 0.00 0.00 65 1010.9
20260505013654 60 309 3.0 3.0 0.00 0.00 0.00 64 1010.8
20260505013151 60 231 1.0 2.0 0.00 0.00 0.00 64 1011.0
20260505012650 60 74 0.0 1.0 0.00 0.00 0.00 64 1010.6
20260505012146 60 219 4.0 5.0 0.00 0.00 0.00 63 1010.7
20260505011642 60 198 3.0 3.0 0.00 0.00 0.00 63 1010.6
20260505011139 60 238 3.0 3.0 0.00 0.00 0.00 63 1010.6
20260505010639 61 202 4.0 6.0 0.00 0.00 0.00 63 1010.4
20260505010137 61 197 5.0 10.0 0.00 0.00 0.00 63 1010.7
20260505005633 61 341 4.0 5.0 0.00 0.00 0.00 62 1010.2
20260505005130 61 239 1.0 2.0 0.00 0.00 0.00 63 1010.2
20260505004627 60 214 3.0 5.0 0.00 0.00 0.00 63 1010.3
20260505004124 61 214 1.0 2.0 0.00 0.00 0.00 62 1010.3
20260505003621 60 307 3.0 3.0 0.00 0.00 0.00 63 1010.0
20260505003118 61 212 1.0 2.0 0.00 0.00 0.00 63 1010.3
20260505002614 61 236 3.0 3.0 0.00 0.00 0.00 63 1010.1
20260505002113 61 229 3.0 3.0 0.00 0.00 0.00 62 1010.2
20260505001609 61 209 2.0 2.0 0.00 0.00 0.00 62 1010.2
20260505001107 61 288 1.0 2.0 0.00 0.00 0.00 62 1010.4
20260505000604 62 346 1.0 1.0 0.00 0.00 0.00 61 1010.3
20260504235558 62 256 1.0 2.0 0.00 0.00 0.00 61 1010.2
20260504235055 62 222 1.0 1.0 0.00 0.00 0.00 60 1010.3
20260504234551 62 335 0.0 1.0 0.00 0.00 0.00 60 1010.1
20260504234049 62 245 3.0 3.0 0.00 0.00 0.00 59 1010.0
20260504233544 62 201 6.0 8.0 0.00 0.00 0.00 59 1009.9
20260504233041 63 271 2.0 2.0 0.00 0.00 0.00 59 1009.8
20260504232538 63 200 3.0 3.0 0.00 0.00 0.00 58 1009.9
20260504232036 63 303 2.0 2.0 0.00 0.00 0.00 58 1010.0
20260504231532 63 310 0.0 1.0 0.00 0.00 0.00 59 1010.1
20260504231028 63 344 2.0 2.0 0.00 0.00 0.00 58 1010.2
20260504230525 63 138 2.0 2.0 0.00 0.00 0.00 58 1010.1
20260504230024 63 322 4.0 5.0 0.00 0.00 0.00 58 1010.3
20260504225520 64 221 4.0 6.0 0.00 0.00 0.00 57 1010.3
20260504225017 64 37 2.0 2.0 0.00 0.00 0.00 56 1010.3
20260504224514 64 299 3.0 3.0 0.00 0.00 0.00 55 1010.2
20260504224011 64 327 4.0 5.0 0.00 0.00 0.00 55 1010.0
20260504223508 64 68 2.0 2.0 0.00 0.00 0.00 55 1010.0
20260504223004 64 245 6.0 8.0 0.00 0.00 0.00 55 1009.8
20260504222501 64 289 4.0 6.0 0.00 0.00 0.00 55 1010.0
20260504221958 64 229 3.0 6.0 0.00 0.00 0.00 55 1010.3
20260504221455 65 258 5.0 7.0 0.00 0.00 0.00 54 1009.8
20260504220952 65 236 5.0 8.0 0.00 0.00 0.00 54 1009.7
20260504220448 65 235 5.0 7.0 0.00 0.00 0.00 53 1009.9
20260504215945 66 274 5.0 6.0 0.00 0.00 0.00 52 1010.0
20260504215442 66 232 3.0 3.0 0.00 0.00 0.00 51 1010.1
20260504214939 66 216 10.0 18.0 0.00 0.00 0.00 52 1010.0
20260504214435 66 276 1.0 2.0 0.00 0.00 0.00 53 1009.9
20260504213932 66 281 3.0 5.0 0.00 0.00 0.00 52 1010.1
20260504213428 67 268 5.0 8.0 0.00 0.00 0.00 51 1009.9
20260504212926 67 346 3.0 5.0 0.00 0.00 0.00 51 1010.1
20260504212421 66 259 2.0 2.0 0.00 0.00 0.00 54 1009.8
20260504211919 65 243 7.0 9.0 0.00 0.00 0.00 53 1009.9
20260504211415 66 256 10.0 15.0 0.00 0.00 0.00 52 1009.9
20260504210913 68 256 6.0 9.0 0.00 0.00 0.00 50 1009.8
20260504210409 66 233 3.0 5.0 0.00 0.00 0.00 51 1009.9
20260504205907 68 281 4.0 5.0 0.00 0.00 0.00 49 1009.8
20260504205404 67 286 6.0 7.0 0.00 0.00 0.00 48 1010.0
20260504204902 68 229 3.0 3.0 0.00 0.00 0.00 51 1009.7
20260504204400 68 252 3.0 5.0 0.00 0.00 0.00 50 1009.8
20260504203900 68 23 2.0 2.0 0.00 0.00 0.00 51 1009.8
20260504203356 68 263 7.0 8.0 0.00 0.00 0.00 48 1009.8
20260504202852 66 282 5.0 7.0 0.00 0.00 0.00 50 1009.8
20260504202349 66 232 14.0 21.0 0.00 0.00 0.00 51 1009.8
20260504201845 67 200 2.0 2.0 0.00 0.00 0.00 51 1009.9
20260504201343 68 190 9.0 11.0 0.00 0.00 0.00 50 1009.9
20260504200840 67 217 11.0 14.0 0.00 0.00 0.00 51 1009.8
20260504200337 66 263 7.0 10.0 0.00 0.00 0.00 51 1009.6
20260504195833 66 227 7.0 9.0 0.00 0.00 0.00 51 1009.8
20260504195329 66 239 7.0 8.0 0.00 0.00 0.00 53 1009.9
20260504194826 68 225 6.0 9.0 0.00 0.00 0.00 51 1010.0
20260504194322 67 274 3.0 6.0 0.00 0.00 0.00 53 1010.0
20260504193818 67 240 6.0 7.0 0.00 0.00 0.00 52 1010.2
20260504193316 67 324 3.0 5.0 0.00 0.00 0.00 52 1010.0
20260504192814 66 195 4.0 6.0 0.00 0.00 0.00 53 1010.2
20260504192312 66 232 6.0 9.0 0.00 0.00 0.00 54 1010.4
20260504191810 67 61 0.0 1.0 0.00 0.00 0.00 56 1010.1
20260504191308 66 243 9.0 10.0 0.00 0.00 0.00 53 1010.4
20260504190803 66 264 6.0 7.0 0.00 0.00 0.00 53 1010.3
20260504190259 64 92 3.0 5.0 0.00 0.00 0.00 57 1010.3
20260504185755 64 258 6.0 9.0 0.00 0.00 0.00 55 1010.4
20260504185253 67 207 4.0 6.0 0.00 0.00 0.00 53 1010.6
20260504184749 65 225 3.0 5.0 0.00 0.00 0.00 54 1010.4
20260504184244 66 216 8.0 11.0 0.00 0.00 0.00 54 1010.9
20260504183740 67 246 3.0 5.0 0.00 0.00 0.00 54 1010.4
20260504183237 66 276 6.0 7.0 0.00 0.00 0.00 52 1010.3
20260504182736 65 211 4.0 6.0 0.00 0.00 0.00 54 1010.6
20260504182233 64 246 10.0 13.0 0.00 0.00 0.00 53 1010.7
20260504181730 65 221 12.0 17.0 0.00 0.00 0.00 53 1010.9
20260504181227 65 255 6.0 8.0 0.00 0.00 0.00 54 1010.9
20260504180726 64 215 11.0 14.0 0.00 0.00 0.00 54 1010.9
20260504180225 64 213 5.0 6.0 0.00 0.00 0.00 54 1011.0
20260504175722 64 180 7.0 9.0 0.00 0.00 0.00 54 1010.9
20260504175218 63 226 6.0 8.0 0.00 0.00 0.00 55 1011.3
20260504174717 62 201 10.0 11.0 0.00 0.00 0.00 56 1011.3
20260504174214 62 247 12.0 14.0 0.00 0.00 0.00 55 1011.2
20260504173710 63 223 8.0 13.0 0.00 0.00 0.00 55 1011.2
20260504173208 63 238 5.0 7.0 0.00 0.00 0.00 53 1011.1
20260504172704 63 195 11.0 15.0 0.00 0.00 0.00 54 1011.1
20260504172200 63 280 8.0 9.0 0.00 0.00 0.00 53 1011.1
20260504171657 63 227 10.0 14.0 0.00 0.00 0.00 53 1011.4
20260504171154 63 289 4.0 5.0 0.00 0.00 0.00 53 1011.4
20260504170650 62 226 5.0 9.0 0.00 0.00 0.00 53 1011.3
20260504170148 62 215 6.0 7.0 0.00 0.00 0.00 53 1011.2
20260504151028 60 289 8.0 9.0 0.00 0.00 0.00 50 1012.7
20260504150525 61 302 5.0 6.0 0.00 0.00 0.00 48 1012.5
20260504140951 59 234 4.0 6.0 0.00 0.00 0.00 51 1012.4
20260504140447 59 325 4.0 6.0 0.00 0.00 0.00 51 1012.4
20260504130412 53 240 9.0 11.0 0.00 0.00 0.00 58 1012.8
20260504110259 45 229 4.0 6.0 0.00 0.00 0.00 70 1013.2
20260504100217 44 235 3.0 3.0 0.00 0.00 0.00 66 1013.0